Location: Vancouver
(49.2500°N, 123.1330°W)
Time: 20:34:55
(UTC-07:00)

AO-27 - Visible Passes

Search period start: 05 May 2016 00:00
Search period end: 15 May 2016 00:00
Orbit: 785 x 799 km, 98.8° (Epoch: 05 May)

Date Brightness Start Highest point End Pass type
(mag) Time Alt. Az. Time Alt. Az. Time Alt. Az.
05 May 9.5 03:11:43 10° NE 03:15:53 24° E 03:20:01 10° SE visible
05 May 7.9 04:50:38 10° N 04:55:42 55° WNW 05:00:46 10° SW visible
06 May 10.1 02:43:55 10° ENE 02:46:30 14° E 02:49:05 10° ESE visible
06 May 7.7 04:21:32 10° NNE 04:26:46 88° ESE 04:31:58 10° SSW visible
07 May 8.4 03:52:37 10° NNE 03:57:42 51° E 04:02:45 10° S visible
08 May 9.2 03:23:58 10° NE 03:28:31 30° E 03:33:03 10° SSE visible
09 May 9.9 02:55:46 10° NE 02:59:11 17° E 03:02:37 10° SE visible
09 May 7.7 04:34:04 10° NNE 04:39:16 75° WNW 04:44:28 10° SSW visible
10 May 8.0 04:05:04 10° NNE 04:10:16 65° ESE 04:15:25 10° S visible
11 May 8.9 03:36:18 10° NNE 03:41:07 37° E 03:45:56 10° SSE visible
12 May 9.7 03:07:51 10° NE 03:11:51 22° E 03:15:51 10° SE visible
12 May 7.9 04:46:38 10° N 04:51:45 60° WNW 04:56:52 10° SSW visible
13 May 10.2 02:40:16 10° ENE 02:42:28 12° E 02:44:39 10° ESE visible
13 May 7.8 04:17:33 10° NNE 04:22:48 81° ESE 04:28:01 10° SSW visible
14 May 8.5 03:48:41 10° NNE 03:53:43 47° E 03:58:43 10° S visible
